| time (UTC) | temp F | wind direction | speed knots | gust knots | rain 1hr in | rain 24hr in | rain mn in | humidity % | barometer mb |
| 20260507231502 | 78 | 250 | 2.6 | 4.3 | 0.00 | 0.00 | 0.00 | 71 | 1012.4 |
| 20260507230000 | 79 | 307 | 1.7 | 4.3 | 0.00 | 0.00 | 0.00 | 69 | 1012.4 |
| 20260507224508 | 80 | 292 | 2.6 | 5.2 | 0.00 | 0.00 | 0.00 | 66 | 1012.0 |
| 20260507223100 | 82 | 358 | 0.9 | 7.0 | 0.00 | 0.00 | 0.00 | 58 | 1011.9 |
| 20260507221559 | 83 | 103 | 1.7 | 8.7 | 0.00 | 0.00 | 0.00 | 56 | 1011.7 |
| 20260507220058 | 83 | 128 | 3.5 | 9.6 | 0.00 | 0.00 | 0.00 | 54 | 1011.4 |
| 20260507214609 | 84 | 101 | 3.5 | 6.1 | 0.00 | 0.00 | 0.00 | 50 | 1011.3 |
| 20260507213107 | 85 | 100 | 3.5 | 10.4 | 0.00 | 0.00 | 0.00 | 48 | 1011.1 |
| 20260507211555 | 85 | 104 | 0.9 | 7.0 | 0.00 | 0.00 | 0.00 | 48 | 1011.0 |
| 20260507210056 | 85 | 86 | 4.3 | 8.7 | 0.00 | 0.00 | 0.00 | 47 | 1011.2 |
| 20260507204601 | 85 | 83 | 3.5 | 7.0 | 0.00 | 0.00 | 0.00 | 47 | 1011.1 |
| 20260507203051 | 85 | 85 | 3.5 | 6.1 | 0.00 | 0.00 | 0.00 | 47 | 1011.3 |
| 20260507201550 | 85 | 103 | 3.5 | 7.0 | 0.00 | 0.00 | 0.00 | 47 | 1011.3 |
| 20260507200049 | 85 | 101 | 4.3 | 8.7 | 0.00 | 0.00 | 0.00 | 47 | 1011.2 |
| 20260507194547 | 86 | 115 | 5.2 | 10.4 | 0.00 | 0.00 | 0.00 | 46 | 1011.5 |
| 20260507160040 | 83 | 111 | 4.3 | 9.6 | 0.00 | 0.00 | 0.00 | 54 | 1014.7 |
| 20260507154541 | 83 | 99 | 3.5 | 8.7 | 0.00 | 0.00 | 0.00 | 53 | 1015.0 |
| 20260507153044 | 82 | 142 | 5.2 | 10.4 | 0.00 | 0.00 | 0.00 | 56 | 1015.3 |
| 20260507151532 | 82 | 101 | 2.6 | 8.7 | 0.00 | 0.00 | 0.00 | 57 | 1015.3 |
| 20260507150032 | 81 | 148 | 2.6 | 6.1 | 0.00 | 0.00 | 0.00 | 58 | 1015.5 |
| 20260507144529 | 80 | 190 | 1.7 | 7.8 | 0.00 | 0.00 | 0.00 | 59 | 1015.6 |
| 20260507143025 | 79 | 117 | 2.6 | 11.3 | 0.00 | 0.00 | 0.00 | 63 | 1015.7 |
| 20260507141525 | 78 | 70 | 1.7 | 8.7 | 0.00 | 0.00 | 0.00 | 66 | 1015.9 |
| 20260507140025 | 78 | 333 | 3.5 | 9.6 | 0.00 | 0.00 | 0.00 | 64 | 1016.1 |
| 20260507134523 | 78 | 160 | 1.7 | 7.0 | 0.00 | 0.00 | 0.00 | 66 | 1016.0 |
| 20260507133022 | 78 | 305 | 1.7 | 7.8 | 0.00 | 0.00 | 0.00 | 66 | 1016.2 |
| 20260507131521 | 78 | 142 | 1.7 | 6.1 | 0.00 | 0.00 | 0.00 | 66 | 1016.2 |
| 20260507130017 | 77 | 53 | 4.3 | 8.7 | 0.00 | 0.00 | 0.00 | 68 | 1016.1 |
| 20260507124517 | 76 | 125 | 1.7 | 4.3 | 0.00 | 0.00 | 0.00 | 70 | 1016.1 |
| 20260507123012 | 75 | 109 | 2.6 | 7.0 | 0.00 | 0.00 | 0.00 | 72 | 1016.2 |
| 20260507121508 | 74 | 157 | 2.6 | 5.2 | 0.00 | 0.00 | 0.00 | 75 | 1016.1 |
| 20260507120006 | 74 | 85 | 2.6 | 5.2 | 0.00 | 0.00 | 0.00 | 77 | 1016.1 |
| 20260507114503 | 73 | 151 | 1.7 | 3.5 | 0.00 | 0.00 | 0.00 | 80 | 1016.1 |
| 20260507113002 | 72 | 128 | 0.9 | 6.1 | 0.00 | 0.00 | 0.00 | 82 | 1015.9 |
| 20260507111503 | 71 | 109 | 0.9 | 2.6 | 0.00 | 0.00 | 0.00 | 83 | 1015.8 |
| 20260507110002 | 71 | 102 | 1.7 | 4.3 | 0.00 | 0.00 | 0.00 | 84 | 1015.7 |
| 20260507104559 | 0 | 0.0 | 0.0 | 0.00 | 0.00 | 0.00 | 1015.5 | ||
| 20260507103055 | 0 | 0.0 | 0.0 | 0.00 | 0.00 | 0.00 | 1015.4 | ||
| 20260507101552 | 0 | 0.0 | 0.0 | 0.00 | 0.00 | 0.00 | 1015.4 | ||
| 20260507100053 | 0 | 0.0 | 0.0 | 0.00 | 0.00 | 0.00 | 1015.3 | ||
| 20260507094554 | 0 | 0.0 | 0.0 | 0.00 | 0.00 | 0.00 | 1015.1 | ||
| 20260507093045 | 0 | 0.0 | 0.0 | 0.00 | 0.00 | 0.00 | 1015.0 | ||
| 20260507091541 | 0 | 0.0 | 0.0 | 0.00 | 0.00 | 0.00 | 1014.8 | ||
| 20260507090041 | 0 | 0.0 | 0.0 | 0.00 | 0.00 | 0.00 | 1014.5 | ||
| 20260507084533 | 0 | 0.0 | 0.0 | 0.00 | 0.00 | 0.00 | 1014.4 | ||
| 20260507083037 | 0 | 0.0 | 0.0 | 0.00 | 0.00 | 0.00 | 1014.3 | ||
| 20260507081528 | 0 | 0.0 | 0.0 | 0.00 | 0.00 | 0.00 | 1014.3 | ||
| 20260507080019 | 0 | 0.0 | 0.0 | 0.00 | 0.00 | 0.00 | 1014.4 | ||
| 20260507074526 | 0 | 0.0 | 0.0 | 0.00 | 0.00 | 0.00 | 1014.4 | ||
| 20260507073010 | 0 | 0.0 | 0.0 | 0.00 | 0.00 | 0.00 | 1014.4 | ||
| 20260507071508 | 0 | 0.0 | 0.0 | 0.00 | 0.00 | 0.00 | 1014.5 | ||
| 20260507070004 | 0 | 0.0 | 0.0 | 0.00 | 0.00 | 0.00 | 1014.6 | ||
| 20260507064600 | 71 | 132 | 0.0 | 3.5 | 0.00 | 0.00 | 0.00 | 83 | 1014.7 |
| 20260507063059 | 72 | 105 | 1.7 | 3.5 | 0.00 | 0.00 | 0.00 | 83 | 1014.9 |
| 20260507061554 | 72 | 102 | 0.9 | 3.5 | 0.00 | 0.00 | 0.00 | 83 | 1015.0 |
| 20260507060052 | 72 | 145 | 0.9 | 4.3 | 0.00 | 0.00 | 0.00 | 83 | 1015.2 |
| 20260507054602 | 72 | 108 | 2.6 | 5.2 | 0.00 | 0.00 | 0.00 | 83 | 1015.3 |
| 20260507053048 | 72 | 125 | 1.7 | 6.1 | 0.00 | 0.00 | 0.00 | 83 | 1015.5 |
| 20260507051546 | 72 | 165 | 2.6 | 6.1 | 0.00 | 0.00 | 0.00 | 83 | 1015.5 |
| 20260507050044 | 73 | 102 | 0.9 | 4.3 | 0.00 | 0.00 | 0.00 | 83 | 1015.7 |
| 20260507044543 | 73 | 153 | 0.9 | 5.2 | 0.00 | 0.00 | 0.00 | 83 | 1015.8 |
| 20260507043041 | 73 | 96 | 1.7 | 6.1 | 0.00 | 0.00 | 0.00 | 83 | 1016.0 |
| 20260507041539 | 73 | 113 | 0.9 | 5.2 | 0.00 | 0.00 | 0.00 | 83 | 1015.9 |
| 20260507040043 | 73 | 150 | 0.9 | 7.0 | 0.00 | 0.00 | 0.00 | 83 | 1016.0 |
| 20260507034535 | 73 | 123 | 0.9 | 7.0 | 0.00 | 0.00 | 0.00 | 84 | 1016.2 |
| 20260507033036 | 73 | 109 | 2.6 | 5.2 | 0.00 | 0.00 | 0.00 | 84 | 1016.3 |
| 20260507031530 | 73 | 120 | 2.6 | 7.0 | 0.00 | 0.00 | 0.00 | 85 | 1016.4 |
| 20260507030030 | 73 | 139 | 2.6 | 6.1 | 0.00 | 0.00 | 0.00 | 84 | 1016.2 |
| 20260507024526 | 73 | 127 | 0.0 | 5.2 | 0.00 | 0.00 | 0.00 | 84 | 1016.2 |
| 20260507023028 | 73 | 117 | 4.3 | 7.8 | 0.00 | 0.00 | 0.00 | 84 | 1016.1 |
| 20260507021523 | 74 | 120 | 3.5 | 6.1 | 0.00 | 0.00 | 0.00 | 83 | 1016.2 |
| 20260507020025 | 74 | 70 | 3.5 | 6.1 | 0.00 | 0.00 | 0.00 | 82 | 1016.1 |
| 20260507014521 | 74 | 108 | 3.5 | 7.0 | 0.00 | 0.00 | 0.00 | 82 | 1016.0 |
| 20260507013028 | 74 | 106 | 3.5 | 8.7 | 0.00 | 0.00 | 0.00 | 83 | 1015.8 |
| 20260507011533 | 75 | 115 | 1.7 | 7.0 | 0.00 | 0.00 | 0.00 | 82 | 1015.7 |
| 20260507010019 | 75 | 107 | 1.7 | 7.0 | 0.00 | 0.00 | 0.00 | 82 | 1015.5 |
| 20260507004518 | 75 | 107 | 4.3 | 7.8 | 0.00 | 0.00 | 0.00 | 81 | 1015.3 |
| 20260507003019 | 76 | 95 | 3.5 | 7.0 | 0.00 | 0.00 | 0.00 | 78 | 1015.1 |
| 20260507001516 | 77 | 145 | 1.7 | 7.0 | 0.00 | 0.00 | 0.00 | 77 | 1014.9 |
| 20260507000016 | 77 | 125 | 3.5 | 6.1 | 0.00 | 0.00 | 0.00 | 77 | 1014.7 |
| 20260506234515 | 78 | 61 | 4.3 | 9.6 | 0.00 | 0.00 | 0.00 | 76 | 1014.5 |
| 20260506233015 | 78 | 148 | 3.5 | 10.4 | 0.00 | 0.00 | 0.00 | 75 | 1014.4 |